Location: Cuzcurrita-R�o Tir�n
(42.5415°N, 2.9642°W)
Time: 18:53:09
(UTC+00:00)

YAOGAN 1 - Pass Details

Date: 17 January 2021
Orbit: 618 x 620 km, 97.9° (Epoch: 02 March)

Event Time Altitude Azimuth Distance (km) Brightness Sun altitude
Rises 17:38:02 0° 121° (ESE) 2,889 5.6 -6.1°
Reaches altitude 10° 17:41:01 10° 98° (E) 1,988 4.6 -6.6°
Maximum altitude 17:43:29 15° 63° (ENE) 1,675 4.1 -7.0°
Drops below altitude 10° 17:45:58 10° 28° (NNE) 1,997 4.7 -7.4°
Sets 17:48:58 0° 6° (N) 2,908 5.7 -8.0°
